| time (UTC) | temp C | wind direction | speed KPH | gust KPH | rain 1hr cm | rain 24hr cm | rain mn cm | humidity % | barometer mb |
| 20260507074540 | 8 | 176 | 3.2 | 8.0 | 0.00 | 0.28 | 0.00 | 89 | 1007.2 |
| 20260507073042 | 8 | 186 | 1.6 | 6.4 | 0.00 | 0.28 | 0.00 | 90 | 1006.9 |
| 20260507071538 | 8 | 168 | 3.2 | 8.0 | 0.00 | 0.28 | 0.00 | 90 | 1006.6 |
| 20260507070058 | 8 | 188 | 3.2 | 8.0 | 0.00 | 0.28 | 0.00 | 91 | 1006.8 |
| 20260507064546 | 8 | 175 | 4.8 | 8.0 | 0.00 | 0.28 | 0.00 | 91 | 1006.3 |
| 20260507063037 | 8 | 165 | 3.2 | 11.3 | 0.00 | 0.28 | 0.00 | 90 | 1006.1 |
| 20260507061539 | 8 | 179 | 1.6 | 6.4 | 0.00 | 0.28 | 0.00 | 91 | 1006.4 |
| 20260507060040 | 9 | 187 | 1.6 | 8.0 | 0.00 | 0.28 | 0.00 | 91 | 1006.6 |
| 20260507054559 | 9 | 165 | 1.6 | 4.8 | 0.00 | 0.28 | 0.00 | 93 | 1006.7 |
| 20260507053038 | 9 | 0 | 1.6 | 8.0 | 0.00 | 0.28 | 0.00 | 91 | 1006.9 |
| 20260507051541 | 9 | 169 | 3.2 | 8.0 | 0.00 | 0.28 | 0.00 | 92 | 1006.8 |
| 20260507050048 | 10 | 156 | 4.8 | 8.0 | 0.00 | 0.28 | 0.00 | 93 | 1006.6 |
| 20260507044544 | 10 | 181 | 4.8 | 11.3 | 0.00 | 0.28 | 0.00 | 94 | 1006.7 |
| 20260507043039 | 10 | 172 | 1.6 | 8.0 | 0.00 | 0.28 | 0.00 | 95 | 1006.6 |
| 20260507041542 | 10 | 171 | 4.8 | 9.7 | 0.00 | 0.28 | 0.00 | 95 | 1006.9 |
| 20260507040042 | 10 | 167 | 3.2 | 11.3 | 0.00 | 0.28 | 0.00 | 96 | 1006.8 |
| 20260507034543 | 11 | 147 | 4.8 | 14.5 | 0.00 | 0.28 | 0.28 | 97 | 1006.5 |
| 20260507033041 | 11 | 181 | 3.2 | 16.1 | 0.03 | 0.28 | 0.28 | 97 | 1006.2 |
| 20260507031541 | 12 | 184 | 3.2 | 14.5 | 0.03 | 0.28 | 0.28 | 98 | 1005.8 |
| 20260507030039 | 13 | 188 | 4.8 | 8.0 | 0.03 | 0.28 | 0.28 | 99 | 1006.0 |
| 20260507024539 | 14 | 170 | 4.8 | 9.7 | 0.03 | 0.28 | 0.28 | 99 | 1005.6 |
| 20260507023037 | 14 | 148 | 3.2 | 9.7 | 0.00 | 0.25 | 0.25 | 99 | 1005.5 |
| 20260507021542 | 14 | 86 | 3.2 | 9.7 | 0.00 | 0.25 | 0.25 | 99 | 1005.1 |
| 20260507020050 | 14 | 196 | 1.6 | 11.3 | 0.00 | 0.25 | 0.25 | 99 | 1005.2 |
| 20260507014547 | 14 | 94 | 3.2 | 16.1 | 0.00 | 0.25 | 0.25 | 99 | 1005.2 |
| 20260507013045 | 14 | 25 | 3.2 | 17.7 | 0.00 | 0.25 | 0.25 | 99 | 1005.3 |
| 20260507011543 | 14 | 97 | 3.2 | 16.1 | 0.00 | 0.25 | 0.25 | 99 | 1005.3 |
| 20260507010043 | 14 | 65 | 3.2 | 14.5 | 0.00 | 0.25 | 0.25 | 99 | 1005.4 |
| 20260507004543 | 14 | 356 | 3.2 | 8.0 | 0.00 | 0.25 | 0.25 | 99 | 1005.2 |
| 20260507003039 | 14 | 333 | 3.2 | 14.5 | 0.03 | 0.25 | 0.25 | 99 | 1005.2 |
| 20260507001555 | 14 | 198 | 3.2 | 12.9 | 0.03 | 0.25 | 0.25 | 99 | 1005.2 |
| 20260507000050 | 14 | 179 | 4.8 | 12.9 | 0.08 | 0.25 | 0.25 | 99 | 1005.2 |
| 20260506234549 | 14 | 1 | 3.2 | 22.5 | 0.13 | 0.25 | 0.25 | 99 | 1005.0 |
| 20260506233041 | 14 | 98 | 6.4 | 19.3 | 0.10 | 0.23 | 0.23 | 99 | 1005.1 |
| 20260506231544 | 14 | 11 | 4.8 | 19.3 | 0.13 | 0.23 | 0.23 | 99 | 1005.0 |
| 20260506230042 | 14 | 134 | 6.4 | 20.9 | 0.10 | 0.18 | 0.18 | 99 | 1005.4 |
| 20260506224540 | 14 | 106 | 6.4 | 22.5 | 0.05 | 0.13 | 0.13 | 99 | 1005.4 |
| 20260506223038 | 14 | 91 | 6.4 | 25.7 | 0.05 | 0.13 | 0.13 | 99 | 1005.4 |
| 20260506221550 | 14 | 299 | 6.4 | 17.7 | 0.05 | 0.10 | 0.10 | 99 | 1005.5 |
| 20260506220043 | 14 | 349 | 6.4 | 17.7 | 0.03 | 0.08 | 0.08 | 99 | 1005.7 |
| 20260506214537 | 14 | 101 | 4.8 | 16.1 | 0.08 | 0.08 | 0.08 | 99 | 1005.8 |
| 20260506213046 | 14 | 84 | 4.8 | 20.9 | 0.08 | 0.08 | 0.08 | 98 | 1005.8 |
| 20260506211545 | 14 | 115 | 6.4 | 22.5 | 0.05 | 0.05 | 0.05 | 98 | 1006.0 |
| 20260506210045 | 15 | 173 | 8.0 | 19.3 | 0.05 | 0.05 | 0.05 | 98 | 1006.1 |
| 20260506204538 | 15 | 59 | 6.4 | 19.3 | 0.00 | 0.00 | 0.00 | 98 | 1006.2 |
| 20260506203038 | 15 | 19 | 4.8 | 20.9 | 0.00 | 0.00 | 0.00 | 98 | 1006.1 |
| 20260506201540 | 15 | 1 | 3.2 | 14.5 | 0.00 | 0.00 | 0.00 | 98 | 1006.3 |
| 20260506200045 | 15 | 146 | 3.2 | 11.3 | 0.00 | 0.00 | 0.00 | 98 | 1006.4 |
| 20260506194543 | 16 | 129 | 3.2 | 14.5 | 0.00 | 0.00 | 0.00 | 98 | 1006.2 |
| 20260506193048 | 16 | 0 | 0.0 | 6.4 | 0.00 | 0.00 | 0.00 | 98 | 1006.3 |
| 20260506191539 | 16 | 148 | 1.6 | 6.4 | 0.00 | 0.00 | 0.00 | 98 | 1006.3 |
| 20260506190037 | 16 | 153 | 0.0 | 4.8 | 0.00 | 0.00 | 0.00 | 97 | 1006.6 |
| 20260506184539 | 16 | 180 | 1.6 | 6.4 | 0.00 | 0.00 | 0.00 | 96 | 1006.7 |
| 20260506183038 | 16 | 170 | 1.6 | 9.7 | 0.00 | 0.00 | 0.00 | 94 | 1006.9 |
| 20260506181553 | 17 | 169 | 1.6 | 3.2 | 0.00 | 0.00 | 0.00 | 88 | 1006.9 |
| 20260506180039 | 18 | 180 | 0.0 | 4.8 | 0.00 | 0.00 | 0.00 | 80 | 1007.0 |
| 20260506174538 | 21 | 46 | 8.0 | 35.4 | 0.00 | 0.00 | 0.00 | 66 | 1006.9 |
| 20260506173103 | 21 | 133 | 6.4 | 24.1 | 0.00 | 0.00 | 0.00 | 63 | 1006.6 |
| 20260506171542 | 21 | 137 | 6.4 | 22.5 | 0.00 | 0.00 | 0.00 | 63 | 1006.7 |
| 20260506170056 | 21 | 157 | 8.0 | 30.6 | 0.00 | 0.00 | 0.00 | 65 | 1006.9 |
| 20260506164539 | 21 | 87 | 6.4 | 24.1 | 0.00 | 0.00 | 0.00 | 66 | 1007.1 |
| 20260506163050 | 20 | 46 | 4.8 | 16.1 | 0.00 | 0.00 | 0.00 | 68 | 1007.4 |
| 20260506161540 | 20 | 132 | 3.2 | 14.5 | 0.00 | 0.00 | 0.00 | 68 | 1007.5 |
| 20260506160042 | 20 | 86 | 8.0 | 20.9 | 0.00 | 0.00 | 0.00 | 69 | 1008.0 |
| 20260506154603 | 20 | 209 | 8.0 | 19.3 | 0.00 | 0.00 | 0.00 | 69 | 1008.3 |
| 20260506153038 | 20 | 124 | 3.2 | 24.1 | 0.00 | 0.00 | 0.00 | 69 | 1008.6 |
| 20260506151539 | 20 | 31 | 4.8 | 20.9 | 0.00 | 0.00 | 0.00 | 69 | 1008.7 |
| 20260506150047 | 20 | 11 | 6.4 | 16.1 | 0.00 | 0.00 | 0.00 | 71 | 1008.6 |
| 20260506144544 | 20 | 25 | 4.8 | 19.3 | 0.00 | 0.00 | 0.00 | 72 | 1008.7 |
| 20260506143044 | 19 | 68 | 9.7 | 22.5 | 0.00 | 0.00 | 0.00 | 73 | 1008.7 |
| 20260506141538 | 18 | 146 | 9.7 | 24.1 | 0.00 | 0.00 | 0.00 | 75 | 1008.5 |
| 20260506140039 | 18 | 18 | 6.4 | 25.7 | 0.00 | 0.00 | 0.00 | 77 | 1008.6 |
| 20260506134538 | 17 | 82 | 8.0 | 17.7 | 0.00 | 0.00 | 0.00 | 78 | 1008.6 |
| 20260506133052 | 17 | 164 | 3.2 | 12.9 | 0.00 | 0.00 | 0.00 | 79 | 1008.9 |
| 20260506131538 | 17 | 153 | 4.8 | 17.7 | 0.00 | 0.00 | 0.00 | 79 | 1008.8 |
| 20260506130039 | 17 | 40 | 8.0 | 27.4 | 0.00 | 0.00 | 0.00 | 78 | 1008.9 |
| 20260506124541 | 17 | 276 | 3.2 | 19.3 | 0.00 | 0.00 | 0.00 | 78 | 1009.0 |
| 20260506123040 | 17 | 128 | 4.8 | 17.7 | 0.00 | 0.00 | 0.00 | 79 | 1008.8 |
| 20260506121539 | 17 | 134 | 12.9 | 17.7 | 0.00 | 0.00 | 0.00 | 1009.0 | |
| 20260506120038 | -17 | 0.0 | 0.0 | 0.00 | 0.00 | 0.00 | 1009.1 | ||
| 20260506114542 | -17 | 0.0 | 0.0 | 0.00 | 0.00 | 0.00 | 1009.3 | ||
| 20260506113039 | -17 | 0.0 | 0.0 | 0.00 | 0.00 | 0.00 | 1009.4 | ||
| 20260506111538 | -17 | 0.0 | 0.0 | 0.00 | 0.00 | 0.00 | 1009.4 | ||
| 20260506110043 | -17 | 0.0 | 0.0 | 0.00 | 0.00 | 0.00 | 1009.3 | ||
| 20260506104604 | -17 | 0.0 | 0.0 | 0.00 | 0.00 | 0.00 | 1009.6 | ||
| 20260506103041 | -17 | 0.0 | 0.0 | 0.00 | 0.00 | 0.00 | 1009.3 | ||
| 20260506101535 | -17 | 0.0 | 0.0 | 0.00 | 0.00 | 0.00 | 1009.3 | ||
| 20260506100043 | -17 | 0.0 | 0.0 | 0.00 | 0.00 | 0.00 | 1009.5 | ||
| 20260506094539 | -17 | 0.0 | 0.0 | 0.00 | 0.00 | 0.00 | 1009.3 | ||
| 20260506093037 | -17 | 0.0 | 0.0 | 0.00 | 0.00 | 0.00 | 1009.4 | ||
| 20260506091538 | -17 | 0.0 | 0.0 | 0.00 | 0.00 | 0.00 | 1009.4 | ||
| 20260506090044 | -17 | 3.2 | 9.7 | 0.00 | 0.00 | 0.00 | 1009.4 | ||
| 20260506084537 | 15 | 181 | 3.2 | 14.5 | 0.00 | 0.00 | 0.00 | 80 | 1009.3 |
| 20260506083044 | 15 | 354 | 3.2 | 16.1 | 0.00 | 0.00 | 0.00 | 79 | 1009.3 |
| 20260506081537 | 15 | 8 | 3.2 | 11.3 | 0.00 | 0.00 | 0.00 | 78 | 1009.4 |